This is the latest recevied weather packets stored in our database for station/object YB2VNE-13. If no packets are shown the sender has not sent any weather packets the latest 10 day(s).
| Time | Temp. | Humidity | Pressure | Rain* | Wind** | Luminosity | Snow |
|---|---|---|---|---|---|---|---|
| 1787980837 | 29.44° C | 48% | 998 hPa | - | - | 0 W/m² | - |
| 1787980527 | 29.44° C | 48% | 998 hPa | - | - | 0 W/m² | - |
| 1787980217 | 28.89° C | 49% | 998 hPa | - | - | 0 W/m² | - |
| 1787979907 | 28.89° C | 50% | 998 hPa | - | - | 0 W/m² | - |
| 1787979597 | 28.89° C | 48% | 998 hPa | - | - | 0 W/m² | - |
| 1787979287 | 28.89° C | 49% | 998 hPa | - | - | 0 W/m² | - |
| 1787978977 | 28.33° C | 50% | 998 hPa | - | - | 0 W/m² | - |
| 1787978667 | 28.33° C | 49% | 999 hPa | - | - | 0 W/m² | - |
| 1787978357 | 28.89° C | 49% | 999 hPa | - | - | 0 W/m² | - |
| 1787978047 | 28.89° C | 49% | 999 hPa | - | - | 0 W/m² | - |
| 1787977737 | 28.33° C | 50% | 999 hPa | - | - | 0 W/m² | - |
| 1787977427 | 28.89° C | 47% | 999 hPa | - | - | 0 W/m² | - |
| 1787977117 | 28.33° C | 49% | 999 hPa | - | - | 0 W/m² | - |
| 1787976807 | 28.33° C | 49% | 999 hPa | - | - | 0 W/m² | - |
| 1787976497 | 28.33° C | 48% | 999 hPa | - | - | 0 W/m² | - |
| 1787976187 | 27.78° C | 50% | 999 hPa | - | - | 0 W/m² | - |
| 1787975877 | 28.33° C | 46% | 999 hPa | - | - | 0 W/m² | - |
| 1787975567 | 28.33° C | 46% | 999 hPa | - | - | 0 W/m² | - |
| 1787975257 | 28.33° C | 49% | 999 hPa | - | - | 0 W/m² | - |
| 1787974947 | 27.78° C | 53% | 1000 hPa | - | - | 0 W/m² | - |
| 1787974637 | 27.78° C | 52% | 1000 hPa | - | - | 0 W/m² | - |
| 1787974327 | 27.78° C | 55% | 1000 hPa | - | - | 0 W/m² | - |
| 1787974017 | 27.22° C | 57% | 1000 hPa | - | - | 0 W/m² | - |
| 1787973707 | 27.22° C | 59% | 1000 hPa | - | - | 0 W/m² | - |
| 1787973397 | 27.22° C | 59% | 1000 hPa | - | - | 0 W/m² | - |
* Rain since midnight (hover to see other rain measurements)
** Current wind speed in m/s (hover to see current wind gust speed)